CW1492 Weather Reports


Display with metric or nautical units.
time (UTC)temp
F
wind
direction
speed
MPH
gust
MPH
rain 1hr
in
rain 24hr
in
rain mn
in
humidity
%
barometer
mb
20260904210438 77 303 3.0 8.0 0.00 0.01 0.01 47 1011.8
20260904210335 77 303 3.0 8.0 0.00 0.01 0.01 47 1011.8
20260904204840 77 314 5.0 9.0 0.00 0.01 0.01 46 1011.6
20260904204834 80 318 1.0 3.0 0.00 0.00 0.00 60 1010.1
20260904203406 79 316 3.0 8.0 0.00 0.01 0.01 45 1011.6
20260904203315 79 24 1.0 5.0 0.00 0.00 0.00 61 1010.0
20260904201922 77 339 1.0 5.0 0.00 0.00 0.00 63 1010.1
20260904201920 78 315 3.0 10.0 0.00 0.01 0.01 45 1011.6
20260904200404 77 356 2.0 5.0 0.00 0.01 0.01 48 1011.5
20260904200325 76 331 2.0 8.0 0.00 0.00 0.00 61 1010.0
20260904194906 77 267 3.0 9.0 0.00 0.01 0.01 46 1011.7
20260904194826 77 271 1.0 9.0 0.00 0.00 0.00 61 1010.3
20260904193356 79 302 3.0 8.0 0.00 0.01 0.01 46 1011.7
20260904193351 78 296 2.0 4.0 0.00 0.00 0.00 62 1010.1
20260904191858 77 25 3.0 7.0 0.00 0.01 0.01 47 1011.9
20260904191850 77 323 1.0 3.0 0.00 0.00 0.00 63 1010.3
20260904190404 77 226 4.0 13.0 0.00 0.01 0.01 45 1011.9
20260904190314 77 355 4.0 8.0 0.00 0.00 0.00 58 1010.3
20260904184834 76 347 1.0 4.0 0.00 0.00 0.00 63 1010.4
20260904184824 78 333 2.0 10.0 0.00 0.01 0.01 47 1011.8
20260904183340 77 271 1.0 4.0 0.00 0.00 0.00 63 1010.3
20260904183336 80 236 4.0 12.0 0.00 0.01 0.01 39 1011.9
20260904181905 80 340 3.0 10.0 0.00 0.01 0.01 43 1012.0
20260904181903 79 321 1.0 5.0 0.00 0.00 0.00 59 1010.4
20260904180411 78 261 1.0 7.0 0.00 0.00 0.00 61 1010.5
20260904180340 79 297 3.0 11.0 0.00 0.01 0.01 43 1012.0
20260904174906 79 278 4.0 10.0 0.00 0.01 0.01 44 1012.0
20260904174847 78 296 2.0 8.0 0.00 0.00 0.00 61 1010.4
20260904173414 78 355 1.0 4.0 0.00 0.00 0.00 63 1010.4
20260904173357 78 280 5.0 11.0 0.00 0.01 0.01 44 1011.9
20260904171941 78 328 1.0 8.0 0.00 0.00 0.00 61 1010.5
20260904171835 78 357 4.0 11.0 0.00 0.01 0.01 45 1012.0
20260904170406 78 339 5.0 11.0 0.00 0.01 0.01 45 1012.2
20260904170315 79 355 2.0 8.0 0.00 0.00 0.00 58 1010.5
20260904164849 78 272 8.0 12.0 0.00 0.01 0.01 44 1012.2
20260904164813 78 329 1.0 5.0 0.00 0.00 0.00 63 1010.7
20260904163330 78 316 3.0 8.0 0.00 0.01 0.01 51 1012.3
20260904163314 79 89 2.0 7.0 0.00 0.00 0.00 65 1010.7
20260904161837 78 288 2.0 6.0 0.00 0.00 0.00 65 1010.8
20260904161831 77 265 6.0 10.0 0.00 0.01 0.01 50 1012.3
20260904160345 76 348 3.0 10.0 0.00 0.01 0.01 59 1012.3
20260904160336 78 56 1.0 6.0 0.00 0.00 0.00 68 1010.8
20260904154914 77 248 1.0 4.0 0.00 0.00 0.00 69 1011.0
20260904154847 76 324 3.0 13.0 0.00 0.01 0.01 62 1012.5
20260904153443 76 336 3.0 9.0 0.00 0.01 0.01 64 1012.5
20260904153401 76 336 3.0 9.0 0.00 0.01 0.01 64 1012.5
20260904153333 76 122 3.0 4.0 0.00 0.00 0.00 74 1011.0
20260904151852 77 5 1.0 4.0 0.00 0.00 0.00 72 1011.2
20260904151825 75 339 3.0 9.0 0.00 0.01 0.01 66 1012.7
20260904150436 76 125 3.0 4.0 0.00 0.00 0.00 74 1011.3
20260904150353 74 16 4.0 10.0 0.00 0.01 0.01 70 1012.9
20260904144825 72 308 2.0 7.0 0.00 0.01 0.01 79 1012.8
20260904144823 76 128 3.0 4.0 0.00 0.00 0.00 77 1011.3
20260904143357 71 257 2.0 3.0 0.00 0.01 0.01 82 1012.8
20260904143321 74 137 1.0 3.0 0.00 0.00 0.00 79 1011.6
20260904141901 69 309 2.0 4.0 0.00 0.01 0.01 87 1012.9
20260904141855 72 82 3.0 5.0 0.00 0.00 0.00 85 1011.7
20260904140406 68 270 0.0 3.0 0.00 0.01 0.01 90 1013.0
20260904134828 66 293 0.0 2.0 0.00 0.01 0.01 91 1013.0
20260904134815 70 126 3.0 4.0 0.00 0.00 0.00 87 1011.8
20260904133358 65 293 0.0 0.0 0.00 0.01 0.01 91 1013.0
20260904133333 68 107 2.0 3.0 0.00 0.00 0.00 93 1011.7
20260904131932 65 293 0.0 1.0 0.00 0.01 0.01 91 1012.9
20260904131849 66 278 1.0 4.0 0.00 0.00 0.00 98 1011.6
20260904130412 64 318 0.0 1.0 0.00 0.01 0.01 91 1012.8
20260904130350 64 325 1.0 3.0 0.00 0.00 0.00 99 1011.6
20260904124909 62 318 0.0 2.0 0.00 0.01 0.01 91 1013.0
20260904124813 63 337 1.0 3.0 0.00 0.00 0.00 99 1011.8
20260904123333 61 39 0.0 2.0 0.00 0.01 0.01 91 1013.0
20260904123322 62 5 1.0 3.0 0.00 0.00 0.00 99 1011.7
20260904121948 60 39 0.0 1.0 0.00 0.01 0.01 91 1012.9
20260904121906 61 69 0.0 1.0 0.00 0.00 0.00 99 1011.5
20260904120346 60 39 0.0 2.0 0.00 0.01 0.01 91 1012.8
20260904120332 60 69 0.0 1.0 0.00 0.00 0.00 98 1011.3
20260904114855 60 69 0.0 2.0 0.00 0.00 0.00 99 1011.1
20260904114825 59 89 0.0 0.0 0.00 0.01 0.01 91 1012.6
20260904113426 60 30 1.0 3.0 0.00 0.00 0.00 99 1011.2
20260904113421 59 89 0.0 1.0 0.00 0.01 0.01 90 1012.7
20260904113344 60 30 1.0 3.0 0.00 0.00 0.00 99 1011.2
20260904113339 59 89 0.0 1.0 0.00 0.01 0.01 90 1012.7
20260904111913 60 355 0.0 0.0 0.00 0.00 0.00 99 1011.0
20260904111900 59 60 0.0 0.0 0.00 0.01 0.01 90 1012.6
20260904110352 59 59 0.0 0.0 0.00 0.01 0.01 90 1012.6
20260904110338 60 355 0.0 1.0 0.00 0.00 0.00 98 1011.0
20260904104828 60 60 0.0 0.0 0.01 0.01 0.01 91 1012.6
20260904104822 60 355 0.0 1.0 0.00 0.00 0.00 98 1011.1
20260904103407 59 60 0.0 0.0 0.01 0.01 0.01 91 1012.6
20260904103325 59 355 1.0 2.0 0.00 0.00 0.00 99 1011.0
20260904101855 59 355 1.0 2.0 0.00 0.00 0.00 98 1010.9
20260904101848 59 89 0.0 0.0 0.01 0.01 0.01 90 1012.4
20260904100400 59 355 0.0 2.0 0.00 0.00 0.00 98 1010.6
20260904100329 59 89 0.0 0.0 0.01 0.01 0.01 90 1012.1
20260904094850 60 89 0.0 0.0 0.00 0.00 0.00 90 1012.1
20260904094845 59 304 1.0 2.0 0.00 0.00 0.00 98 1010.6
20260904093418 59 314 1.0 2.0 0.00 0.00 0.00 98 1010.6
20260904093339 60 89 0.0 0.0 0.00 0.00 0.00 90 1012.2
20260904091848 60 105 0.0 0.0 0.00 0.00 0.00 90 1012.1
20260904091842 59 314 1.0 1.0 0.00 0.01 0.00 98 1010.6
20260904090420 60 105 0.0 0.0 0.00 0.00 0.00 90 1012.0
20260904090320 59 292 1.0 1.0 0.00 0.01 0.00 98 1010.5
20260904084930 60 105 0.0 0.0 0.00 0.01 0.00 90 1012.1
20260904084850 59 292 0.0 1.0 0.00 0.01 0.00 98 1010.5
20260904083419 59 292 1.0 2.0 0.00 0.01 0.00 98 1010.6
20260904083327 60 76 0.0 0.0 0.00 0.01 0.00 90 1012.2
20260904081859 61 92 0.0 0.0 0.00 0.01 0.00 90 1012.1
20260904081820 59 292 1.0 2.0 0.00 0.01 0.00 98 1010.7
20260904080429 61 92 0.0 2.0 0.00 0.01 0.00 90 1012.0
20260904080328 59 296 1.0 2.0 0.00 0.01 0.00 98 1010.6
20260904074911 61 92 1.0 3.0 0.00 0.01 0.00 90 1012.0
20260904074825 60 296 1.0 2.0 0.00 0.01 0.00 98 1010.7
20260904073357 61 137 1.0 4.0 0.00 0.01 0.00 90 1012.4
20260904073331 60 296 0.0 2.0 0.00 0.01 0.00 98 1010.9
20260904071854 60 296 1.0 2.0 0.00 0.01 0.00 98 1011.0
20260904071840 62 168 0.0 2.0 0.00 0.01 0.00 90 1012.5
20260904070408 62 168 0.0 2.0 0.00 0.01 0.00 90 1012.5
20260904070324 60 279 1.0 2.0 0.00 0.01 0.00 98 1010.9
20260904064849 62 30 0.0 1.0 0.00 0.01 0.00 89 1012.5
20260904064844 60 293 0.0 1.0 0.00 0.01 0.00 98 1011.0
20260904063436 63 355 0.0 0.0 0.00 0.01 0.00 90 1012.6
20260904063405 61 293 1.0 1.0 0.00 0.01 0.00 97 1011.0
20260904061852 63 30 0.0 2.0 0.00 0.01 0.00 90 1012.6
20260904061828 61 293 1.0 2.0 0.00 0.03 0.00 98 1011.1
20260904060435 63 269 0.0 0.0 0.00 0.01 0.00 89 1012.6
20260904060331 61 293 1.0 3.0 0.00 0.03 0.00 97 1011.1
20260904054853 63 135 0.0 0.0 0.00 0.02 0.00 89 1012.8
20260904054830 62 293 1.0 1.0 0.00 0.03 0.00 98 1011.4
20260904053445 64 135 0.0 0.0 0.00 0.02 0.00 88 1013.1
20260904053335 62 293 1.0 1.0 0.00 0.03 0.00 97 1011.7
20260904051928 64 135 0.0 2.0 0.00 0.02 0.00 87 1013.5
20260904051828 62 293 1.0 1.0 0.00 0.03 0.00 97 1012.0
20260904050441 65 104 0.0 1.0 0.00 0.02 0.00 87 1013.3
20260904050334 62 293 1.0 2.0 0.00 0.03 0.00 97 1012.0
20260904044855 65 90 1.0 2.0 0.00 0.02 0.00 87 1013.4
20260904044813 63 293 1.0 2.0 0.00 0.03 0.00 97 1012.0
20260904043405 65 110 2.0 3.0 0.00 0.02 0.00 84 1013.4
20260904043338 63 293 0.0 2.0 0.00 0.03 0.00 97 1012.0
20260904041843 65 110 0.0 1.0 0.00 0.02 0.00 83 1013.4
20260904041828 63 293 1.0 2.0 0.00 0.03 0.03 97 1012.0
20260904040325 66 110 1.0 3.0 0.00 0.02 0.00 83 1013.5
20260904040318 64 293 1.0 2.0 0.00 0.03 0.03 97 1012.1
20260904034926 66 119 1.0 3.0 0.00 0.02 0.02 82 1013.4
20260904034824 64 293 0.0 1.0 0.00 0.03 0.03 97 1012.1
20260904033440 67 93 0.0 3.0 0.00 0.02 0.02 81 1013.7
20260904033413 65 293 1.0 2.0 0.00 0.03 0.03 97 1012.3
20260904033331 65 293 1.0 2.0 0.00 0.03 0.03 97 1012.3
20260904031845 67 94 2.0 4.0 0.00 0.02 0.02 81 1013.7
20260904031816 65 293 1.0 2.0 0.00 0.03 0.03 97 1012.3
20260904030328 68 95 1.0 3.0 0.00 0.02 0.02 81 1013.8
20260904030314 66 293 1.0 2.0 0.00 0.03 0.03 97 1012.4
20260904024834 68 92 3.0 4.0 0.00 0.02 0.02 81 1013.8
20260904024820 66 270 0.0 2.0 0.00 0.03 0.03 97 1012.4
20260904023358 68 88 0.0 2.0 0.00 0.02 0.02 81 1014.0
20260904023349 66 288 1.0 2.0 0.00 0.03 0.03 97 1012.6
20260904021908 69 88 1.0 4.0 0.00 0.02 0.02 80 1013.8
20260904021814 67 288 1.0 2.0 0.00 0.03 0.03 97 1012.5
20260904020451 70 89 1.0 3.0 0.00 0.02 0.02 80 1014.0
20260904020403 67 288 1.0 2.0 0.00 0.03 0.03 97 1012.5
20260904014841 70 96 1.0 3.0 0.00 0.02 0.02 79 1014.0
20260904014826 67 288 1.0 2.0 0.00 0.03 0.03 97 1012.6
20260904013334 68 282 1.0 2.0 0.00 0.03 0.03 96 1012.8
20260904011902 71 96 2.0 3.0 0.00 0.02 0.02 79 1014.1
20260904011835 68 282 1.0 2.0 0.00 0.03 0.03 96 1012.7
20260904010354 71 97 2.0 4.0 0.00 0.02 0.02 80 1014.1
20260904010322 68 282 1.0 2.0 0.00 0.03 0.03 96 1012.7
20260904004825 69 282 1.0 2.0 0.00 0.03 0.03 95 1012.6
20260904003353 70 281 1.0 2.0 0.00 0.03 0.03 94 1012.4
20260904003333 71 91 2.0 3.0 0.00 0.02 0.02 80 1013.9
20260904001921 71 72 3.0 4.0 0.00 0.02 0.02 82 1013.8
20260904001834 70 282 1.0 2.0 0.00 0.03 0.03 94 1012.3
20260904000342 71 108 3.0 5.0 0.00 0.02 0.02 82 1013.3
20260904000337 70 302 1.0 2.0 0.00 0.03 0.03 94 1011.9
20260903234951 71 92 3.0 4.0 0.00 0.02 0.02 82 1013.3
20260903234812 70 302 1.0 2.0 0.00 0.03 0.03 94 1011.8
20260903233341 71 302 1.0 2.0 0.00 0.03 0.03 93 1011.7
20260903233328 71 75 3.0 4.0 0.00 0.02 0.02 82 1013.1
20260903231921 72 104 2.0 5.0 0.00 0.02 0.02 81 1013.0
20260903231822 72 302 1.0 1.0 0.00 0.03 0.03 92 1011.5
20260903230408 73 99 2.0 4.0 0.00 0.02 0.02 79 1013.2
20260903230326 73 315 1.0 2.0 0.00 0.03 0.03 91 1011.8
20260903224938 75 78 2.0 4.0 0.00 0.02 0.02 77 1013.2
20260903224846 74 315 0.0 2.0 0.00 0.03 0.03 89 1011.8
20260903223414 77 71 2.0 4.0 0.00 0.02 0.02 74 1013.3
20260903223313 76 89 0.0 0.0 0.00 0.03 0.03 86 1012.0
20260903221912 79 123 1.0 3.0 0.00 0.02 0.02 72 1013.2
20260903221832 77 88 0.0 1.0 0.00 0.03 0.03 84 1011.8
20260903220357 79 214 2.0 4.0 0.00 0.02 0.02 71 1013.3
20260903214844 80 160 1.0 4.0 0.00 0.02 0.02 70 1013.5
20260903214815 78 136 2.0 3.0 0.00 0.03 0.03 82 1012.2
20260903213351 80 197 2.0 5.0 0.00 0.02 0.02 71 1013.9
20260903213318 77 277 1.0 2.0 0.00 0.03 0.03 82 1012.3
20260903211839 77 149 1.0 2.0 0.00 0.03 0.03 82 1012.1
20260903211827 79 278 1.0 3.0 0.00 0.02 0.02 74 1013.4